M I D A S
Marine Information and Data Acquisition System
Tripno 1911 of the Zeeleeuw from 2010-06-30 05:02:48 to 2010-06-30 15:26:22
Back to CruiseResearch ActivitiesStationsMapUnderway DataData graphs

EquipmentUnitsComments
TimeDGPSUTC
LatitudeDGPSDM.mWGS84
LongitudeDGPSDM.mWGS84
SpeedMeteo Stationm/sRelative wind speed
DirectionMeteo StationdegRelative wind direction
TemperatureMeteo Stationdeg CelciusAir temperature
PressureMeteo StationPaAtmospheric pressure
HumidityMeteo Station%Relative humidity
Missing or incorrect values are displayed as -999
Metereological data collected by the RV Zeeleeuw from 2010-06-30 04:56:18 to 2010-06-30 15:37:12
                                                                                    Next 1000 lines
Time Latitude Longitude Speed Direction Temperature Pressure Humidity
2010-06-30 04:56:29 51°13.661 2°55.957 2.5 15 15.5 101910 47
2010-06-30 04:56:34 51°13.661 2°55.956 0.5 21 15.5 101910 47
2010-06-30 04:56:38 51°13.662 2°55.954 1.2 38 15.5 101910 48
2010-06-30 04:56:44 51°13.662 2°55.952 2.3 41 15.5 101910 48
2010-06-30 04:56:49 51°13.663 2°55.949 1.7 35 15.5 101910 48
2010-06-30 04:56:54 51°13.663 2°55.946 0.8 52 15.5 101910 48
2010-06-30 04:56:59 51°13.664 2°55.943 0.9 38 15.5 101910 50
2010-06-30 04:57:05 51°13.664 2°55.938 0.3 8 15.5 101910 50
2010-06-30 04:57:11 51°13.666 2°55.933 0.4 12 15.5 101910 47
2010-06-30 04:57:17 51°13.667 2°55.927 0.3 18 15.5 101910 47
2010-06-30 04:57:22 51°13.668 2°55.921 0.2 9 15.5 101920 49
2010-06-30 04:57:28 51°13.67 2°55.914 0.1 10 15.5 101920 49
2010-06-30 04:57:32 51°13.671 2°55.909 0.1 10 15.5 101910 50
2010-06-30 04:57:37 51°13.673 2°55.903 0.5 56 15.5 101910 50
2010-06-30 04:57:43 51°13.675 2°55.895 0.3 30 15.5 101920 49
2010-06-30 04:57:47 51°13.676 2°55.889 0.1 315 15.5 101920 49
2010-06-30 04:57:52 51°13.678 2°55.882 1.2 23 15.5 101920 49
2010-06-30 04:57:57 51°13.68 2°55.874 1.9 57 15.5 101920 49
2010-06-30 04:58:03 51°13.682 2°55.865 1.7 24 15.6 101910 49
2010-06-30 04:58:08 51°13.684 2°55.857 3.4 43 15.6 101910 49
2010-06-30 04:58:13 51°13.686 2°55.85 2.8 25 15.6 101920 48
2010-06-30 04:58:17 51°13.688 2°55.844 3.4 44 15.6 101920 48
2010-06-30 04:58:23 51°13.691 2°55.834 3.7 36 15.6 101920 48
2010-06-30 04:58:28 51°13.693 2°55.826 3.1 39 15.6 101920 48
2010-06-30 04:58:32 51°13.695 2°55.819 3.2 32 15.6 101920 50
2010-06-30 04:58:37 51°13.697 2°55.811 2.1 42 15.6 101920 50
2010-06-30 04:58:42 51°13.7 2°55.803 1.9 44 15.6 101920 50
2010-06-30 04:58:48 51°13.703 2°55.793 2.8 34 15.6 101920 50
2010-06-30 04:58:53 51°13.705 2°55.785 2 41 15.6 101910 50
2010-06-30 04:58:57 51°13.707 2°55.778 2.6 51 15.6 101910 50
2010-06-30 04:59:02 51°13.709 2°55.77 3.2 40 15.6 101920 46
2010-06-30 04:59:07 51°13.711 2°55.764 2.2 39 15.6 101920 46
2010-06-30 04:59:13 51°13.713 2°55.758 2.1 29 15.6 101920 50
2010-06-30 04:59:17 51°13.714 2°55.755 1.9 29 15.6 101920 50
2010-06-30 04:59:23 51°13.715 2°55.755 1.6 30 15.6 101920 48
2010-06-30 04:59:27 51°13.716 2°55.756 1.5 27 15.6 101920 48
2010-06-30 04:59:33 51°13.716 2°55.759 1.8 24 15.6 101920 50
2010-06-30 04:59:37 51°13.717 2°55.76 2.6 26 15.6 101920 50
2010-06-30 04:59:42 51°13.717 2°55.762 2.2 27 15.6 101920 48
2010-06-30 04:59:47 51°13.718 2°55.763 2.4 43 15.6 101920 48
2010-06-30 04:59:52 51°13.718 2°55.762 3.1 35 15.6 101920 48
2010-06-30 04:59:57 51°13.717 2°55.761 3.1 52 15.6 101920 48
2010-06-30 05:00:03 51°13.717 2°55.758 3.8 21 15.6 101920 48
2010-06-30 05:00:08 51°13.716 2°55.755 3.8 52 15.6 101920 48
2010-06-30 05:00:12 51°13.715 2°55.752 3.2 20 15.6 101920 48
2010-06-30 05:00:17 51°13.713 2°55.748 3.4 53 15.6 101920 48
2010-06-30 05:00:23 51°13.711 2°55.743 3.3 25 15.6 101920 50
2010-06-30 05:00:28 51°13.71 2°55.738 4.2 51 15.6 101920 50
2010-06-30 05:00:32 51°13.708 2°55.734 4 27 15.6 101920 48
2010-06-30 05:00:37 51°13.706 2°55.729 3.6 57 15.6 101920 48
2010-06-30 05:00:42 51°13.704 2°55.725 3.5 20 15.6 101920 50
2010-06-30 05:00:48 51°13.703 2°55.722 2.8 57 15.6 101920 50
2010-06-30 05:00:53 51°13.702 2°55.72 2.4 21 15.5 101920 49
2010-06-30 05:00:57 51°13.702 2°55.72 1.9 53 15.5 101920 49
2010-06-30 05:01:02 51°13.703 2°55.721 1.8 27 15.6 101920 50
2010-06-30 05:01:08 51°13.706 2°55.722 1.1 54 15.6 101920 50
2010-06-30 05:01:13 51°13.709 2°55.723 0.9 24 15.5 101920 48
2010-06-30 05:01:17 51°13.712 2°55.724 0.2 313 15.5 101920 48
2010-06-30 05:01:22 51°13.716 2°55.725 0.9 257 15.5 101920 50
2010-06-30 05:01:27 51°13.721 2°55.724 0.4 304 15.5 101920 50
2010-06-30 05:01:33 51°13.726 2°55.722 0.5 264 15.5 101920 49
2010-06-30 05:01:37 51°13.73 2°55.72 2.3 310 15.5 101920 49
2010-06-30 05:01:42 51°13.734 2°55.717 2.9 259 15.5 101920 49
2010-06-30 05:01:47 51°13.739 2°55.713 3.1 307 15.5 101920 49
2010-06-30 05:01:52 51°13.744 2°55.709 2.9 250 15.6 101920 51
2010-06-30 05:01:57 51°13.749 2°55.704 1.9 303 15.6 101920 51
2010-06-30 05:02:02 51°13.754 2°55.698 1.6 250 15.6 101920 50
2010-06-30 05:02:07 51°13.76 2°55.692 2 308 15.6 101920 50
2010-06-30 05:02:12 51°13.767 2°55.687 2.3 249 15.6 101920 50
2010-06-30 05:02:17 51°13.773 2°55.68 1.7 308 15.6 101920 50
2010-06-30 05:02:21 51°13.779 2°55.675 1.4 27 15.6 101920 49
2010-06-30 05:02:26 51°13.785 2°55.668 2.1 301 15.6 101920 49
2010-06-30 05:02:31 51°13.793 2°55.662 3.3 28 15.6 101920 50
2010-06-30 05:02:36 51°13.8 2°55.655 2.6 310 15.6 101920 50
2010-06-30 05:02:41 51°13.808 2°55.649 2.4 26 15.6 101920 51
2010-06-30 05:02:45 51°13.815 2°55.643 2.9 306 15.6 101920 51
2010-06-30 05:02:50 51°13.823 2°55.637 2.5 24 15.6 101920 48
2010-06-30 05:02:55 51°13.831 2°55.63 1.9 301 15.6 101920 48
2010-06-30 05:03:00 51°13.839 2°55.623 1.8 20 15.6 101920 50
2010-06-30 05:03:05 51°13.847 2°55.617 2.7 310 15.6 101920 50
2010-06-30 05:03:09 51°13.854 2°55.611 2 318 15.6 101920 48
2010-06-30 05:03:15 51°13.864 2°55.604 2.9 305 15.6 101920 48
2010-06-30 05:03:19 51°13.872 2°55.599 3.1 22 15.7 101920 50
2010-06-30 05:03:25 51°13.882 2°55.591 2.5 306 15.7 101920 50
2010-06-30 05:03:29 51°13.89 2°55.585 2.7 323 15.7 101920 48
2010-06-30 05:03:34 51°13.899 2°55.579 2.2 307 15.7 101920 48
2010-06-30 05:03:39 51°13.908 2°55.572 2.2 23 15.6 101920 48
2010-06-30 05:03:44 51°13.917 2°55.565 2.8 301 15.6 101920 48
2010-06-30 05:03:49 51°13.926 2°55.558 2.9 320 15.6 101920 48
2010-06-30 05:03:54 51°13.935 2°55.551 3.1 305 15.6 101920 48
2010-06-30 05:03:59 51°13.945 2°55.545 3.6 28 15.7 101920 48
2010-06-30 05:04:04 51°13.954 2°55.538 2.4 300 15.7 101920 48
2010-06-30 05:04:09 51°13.963 2°55.531 2.2 320 15.7 101920 48
2010-06-30 05:04:13 51°13.971 2°55.526 2.8 301 15.7 101920 48
2010-06-30 05:04:19 51°13.982 2°55.517 1.8 22 15.7 101920 49
2010-06-30 05:04:24 51°13.991 2°55.51 3 301 15.7 101920 49
2010-06-30 05:04:29 51°14 2°55.503 2.8 22 15.7 101920 48
2010-06-30 05:04:34 51°14.009 2°55.495 2.2 307 15.7 101920 48
2010-06-30 05:04:39 51°14.019 2°55.488 2.2 23 15.7 101920 48
2010-06-30 05:04:44 51°14.028 2°55.481 2.8 306 15.7 101920 48
2010-06-30 05:04:49 51°14.037 2°55.474 1.7 326 15.7 101920 48
2010-06-30 05:04:53 51°14.045 2°55.468 1.5 330 15.7 101920 48
2010-06-30 05:04:59 51°14.056 2°55.459 3.3 319 15.7 101920 48
2010-06-30 05:05:04 51°14.065 2°55.452 3.2 306 15.7 101920 48
2010-06-30 05:05:09 51°14.075 2°55.445 3.2 28 15.7 101920 48
2010-06-30 05:05:14 51°14.084 2°55.439 2.5 302 15.7 101920 48
2010-06-30 05:05:18 51°14.092 2°55.433 2.9 22 15.7 101920 48
2010-06-30 05:05:24 51°14.103 2°55.425 2.3 307 15.7 101920 48
2010-06-30 05:05:29 51°14.113 2°55.417 2.5 327 15.7 101920 51
2010-06-30 05:05:33 51°14.121 2°55.412 1.6 308 15.7 101920 51
2010-06-30 05:05:39 51°14.133 2°55.402 2.9 319 15.7 101920 50
2010-06-30 05:05:44 51°14.143 2°55.394 2.4 306 15.7 101920 50
2010-06-30 05:05:49 51°14.154 2°55.386 3 318 15.7 101920 51
2010-06-30 05:05:54 51°14.165 2°55.378 2.2 323 15.7 101920 51
2010-06-30 05:05:59 51°14.176 2°55.37 3 323 15.7 101920 49
2010-06-30 05:06:04 51°14.187 2°55.362 3.7 308 15.7 101920 49
2010-06-30 05:06:09 51°14.198 2°55.352 3.5 22 15.8 101920 50
2010-06-30 05:06:15 51°14.212 2°55.341 2.6 306 15.8 101920 50
2010-06-30 05:06:20 51°14.223 2°55.333 3.3 29 15.8 101920 48
2010-06-30 05:06:25 51°14.235 2°55.324 3.2 301 15.8 101920 48
2010-06-30 05:06:29 51°14.244 2°55.317 3.5 28 15.8 101920 51
2010-06-30 05:06:35 51°14.258 2°55.307 3.7 308 15.8 101920 51
2010-06-30 05:06:40 51°14.27 2°55.298 3.5 23 15.8 101920 48
2010-06-30 05:06:45 51°14.281 2°55.289 3.5 303 15.8 101920 48
2010-06-30 05:06:49 51°14.291 2°55.281 2.9 20 15.8 101920 48
2010-06-30 05:06:54 51°14.303 2°55.272 2.9 308 15.8 101920 48
2010-06-30 05:06:59 51°14.315 2°55.263 4 21 15.8 101920 47
2010-06-30 05:07:04 51°14.327 2°55.254 3.6 301 15.8 101920 47
2010-06-30 05:07:09 51°14.338 2°55.244 3.2 23 15.9 101920 48
2010-06-30 05:07:13 51°14.348 2°55.236 4.5 307 15.9 101920 48
2010-06-30 05:07:19 51°14.362 2°55.223 4.2 24 15.9 101920 49
2010-06-30 05:07:24 51°14.373 2°55.213 4 306 15.9 101920 49
2010-06-30 05:07:29 51°14.385 2°55.203 4.2 26 15.9 101910 48
2010-06-30 05:07:33 51°14.394 2°55.194 3.8 301 15.9 101910 48
2010-06-30 05:07:38 51°14.405 2°55.184 3.6 20 16 101910 50
2010-06-30 05:07:44 51°14.418 2°55.17 4.5 303 16 101910 50
2010-06-30 05:07:49 51°14.43 2°55.16 4.3 29 16 101920 48
2010-06-30 05:07:54 51°14.443 2°55.149 4 303 16 101920 48
2010-06-30 05:07:58 51°14.454 2°55.141 4.6 20 16 101910 51
2010-06-30 05:08:04 51°14.471 2°55.127 4.4 310 16 101910 51
2010-06-30 05:08:09 51°14.486 2°55.116 4.5 22 16 101920 48
2010-06-30 05:08:13 51°14.498 2°55.106 5.2 302 16 101920 48
2010-06-30 05:08:19 51°14.516 2°55.089 5.1 29 16 101910 48
2010-06-30 05:08:24 51°14.532 2°55.075 4.8 307 16 101910 48
2010-06-30 05:08:29 51°14.547 2°55.06 5.6 26 16 101920 48
2010-06-30 05:08:34 51°14.563 2°55.046 5.3 302 16 101920 48
2010-06-30 05:08:38 51°14.576 2°55.033 5.3 22 16 101920 49
2010-06-30 05:08:44 51°14.595 2°55.014 5.6 303 16 101920 49
2010-06-30 05:08:49 51°14.61 2°54.997 5.1 28 16 101920 50
2010-06-30 05:08:53 51°14.622 2°54.984 5.4 300 16 101920 50
2010-06-30 05:08:59 51°14.641 2°54.965 5.1 23 16 101920 50
2010-06-30 05:09:04 51°14.657 2°54.948 5.5 304 16 101920 50
2010-06-30 05:09:09 51°14.672 2°54.931 5.3 21 16 101920 50
2010-06-30 05:09:13 51°14.685 2°54.918 5.2 308 16 101920 50
2010-06-30 05:09:19 51°14.703 2°54.897 5.5 25 16 101910 48
2010-06-30 05:09:24 51°14.718 2°54.88 5.2 307 16 101910 48
2010-06-30 05:09:29 51°14.733 2°54.862 5.4 27 16 101910 50
2010-06-30 05:09:33 51°14.746 2°54.848 5.6 308 16 101910 50
2010-06-30 05:09:38 51°14.761 2°54.83 5.4 29 15.9 101920 49
2010-06-30 05:09:44 51°14.779 2°54.809 5 308 15.9 101920 49
2010-06-30 05:09:49 51°14.793 2°54.791 5.2 27 15.9 101910 48
2010-06-30 05:09:54 51°14.808 2°54.772 5.3 305 15.9 101910 48
2010-06-30 05:09:58 51°14.82 2°54.758 5.2 21 15.9 101910 49
2010-06-30 05:10:04 51°14.838 2°54.736 5.5 303 15.9 101910 49
2010-06-30 05:10:09 51°14.853 2°54.718 5.3 20 15.9 101910 50
2010-06-30 05:10:13 51°14.865 2°54.704 5.4 305 15.9 101910 50
2010-06-30 05:10:19 51°14.883 2°54.682 5.3 26 15.9 101920 48
2010-06-30 05:10:24 51°14.897 2°54.663 5.9 302 15.9 101920 48
2010-06-30 05:10:29 51°14.911 2°54.644 5.5 23 15.9 101910 50
2010-06-30 05:10:35 51°14.928 2°54.619 6 306 15.9 101910 50
2010-06-30 05:10:40 51°14.941 2°54.599 6.4 26 15.9 101910 48
2010-06-30 05:10:45 51°14.955 2°54.579 5.9 302 15.9 101910 48
2010-06-30 05:10:50 51°14.969 2°54.559 5.7 27 15.9 101910 50
2010-06-30 05:10:55 51°14.983 2°54.542 5.5 308 15.9 101910 50
2010-06-30 05:11:00 51°14.999 2°54.525 5.4 22 16 101910 49
2010-06-30 05:11:05 51°15.015 2°54.509 5.4 306 16 101910 49
2010-06-30 05:11:09 51°15.027 2°54.495 5.6 27 16 101910 50
2010-06-30 05:11:15 51°15.046 2°54.476 5.1 303 16 101910 50
2010-06-30 05:11:19 51°15.059 2°54.463 5.5 27 16 101910 48
2010-06-30 05:11:24 51°15.074 2°54.446 5.8 308 16 101910 48
2010-06-30 05:11:29 51°15.09 2°54.429 5.8 22 16 101920 48
2010-06-30 05:11:34 51°15.105 2°54.412 6 301 16 101920 48
2010-06-30 05:11:39 51°15.12 2°54.395 5.9 22 16 101910 48
2010-06-30 05:11:44 51°15.135 2°54.377 5.6 302 16 101910 48
2010-06-30 05:11:49 51°15.151 2°54.36 6.3 23 16 101910 50
2010-06-30 05:11:53 51°15.163 2°54.345 6 309 16 101910 50
2010-06-30 05:11:58 51°15.179 2°54.328 6.6 20 16 101910 49
2010-06-30 05:12:04 51°15.197 2°54.308 5.9 308 16 101910 49
2010-06-30 05:12:09 51°15.213 2°54.291 6.1 23 16 101910 49
2010-06-30 05:12:13 51°15.226 2°54.278 6 306 16 101910 49
2010-06-30 05:12:18 51°15.241 2°54.261 5.8 27 16 101910 49
2010-06-30 05:12:24 51°15.26 2°54.241 5.7 303 16 101910 49
2010-06-30 05:12:29 51°15.276 2°54.224 6.3 21 16 101910 48
2010-06-30 05:12:34 51°15.291 2°54.207 6.2 307 16 101910 48
2010-06-30 05:12:38 51°15.304 2°54.193 7.1 24 16 101910 50
2010-06-30 05:12:44 51°15.322 2°54.173 6.5 308 16 101910 50
2010-06-30 05:12:48 51°15.335 2°54.159 5.9 22 16 101910 48
2010-06-30 05:12:53 51°15.35 2°54.143 8.1 305 16 101910 48
2010-06-30 05:12:59 51°15.369 2°54.122 6.4 26 16 101910 48
2010-06-30 05:13:04 51°15.384 2°54.105 6.1 305 16 101910 48
2010-06-30 05:13:09 51°15.4 2°54.089 6.4 27 16.1 101910 50
2010-06-30 05:13:14 51°15.415 2°54.072 6.9 305 16.1 101910 50
2010-06-30 05:13:18 51°15.428 2°54.058 7.4 25 16.1 101910 50
2010-06-30 05:13:24 51°15.446 2°54.038 6.6 303 16.1 101910 50
2010-06-30 05:13:29 51°15.462 2°54.021 6.6 315 16.1 101910 49
2010-06-30 05:13:33 51°15.474 2°54.007 6.2 303 16.1 101910 49
2010-06-30 05:13:39 51°15.492 2°53.986 7 23 16.1 101910 48
2010-06-30 05:13:44 51°15.508 2°53.969 6.9 308 16.1 101910 48
2010-06-30 05:13:49 51°15.523 2°53.951 6.4 28 16.1 101920 49
2010-06-30 05:13:53 51°15.535 2°53.937 7.5 304 16.1 101920 49
2010-06-30 05:13:59 51°15.553 2°53.917 6.9 26 16.1 101910 49
2010-06-30 05:14:04 51°15.568 2°53.898 6.2 304 16.1 101910 49
2010-06-30 05:14:09 51°15.583 2°53.88 7.6 23 16.2 101910 48
2010-06-30 05:14:13 51°15.594 2°53.864 6.8 308 16.2 101910 48
2010-06-30 05:14:18 51°15.609 2°53.846 8.3 317 16.2 101910 49
2010-06-30 05:14:24 51°15.626 2°53.822 7.8 309 16.2 101910 49
2010-06-30 05:14:29 51°15.64 2°53.803 7 315 16.2 101920 48
2010-06-30 05:14:34 51°15.654 2°53.783 7.1 310 16.2 101920 48
2010-06-30 05:14:38 51°15.666 2°53.768 6.4 20 16.2 101900 49
2010-06-30 05:14:44 51°15.683 2°53.744 6.5 306 16.2 101900 49
2010-06-30 05:14:49 51°15.696 2°53.724 7.1 316 16.3 101910 48
2010-06-30 05:14:53 51°15.707 2°53.708 6.9 301 16.3 101910 48
2010-06-30 05:14:59 51°15.724 2°53.685 6.3 29 16.3 101910 47
2010-06-30 05:15:04 51°15.738 2°53.665 6.2 302 16.3 101910 47
2010-06-30 05:15:09 51°15.752 2°53.645 6 23 16.3 101910 50
2010-06-30 05:15:14 51°15.766 2°53.625 6.6 306 16.3 101910 50
2010-06-30 05:15:18 51°15.778 2°53.61 6.9 23 16.3 101910 49
2010-06-30 05:15:24 51°15.795 2°53.586 6.9 310 16.3 101910 49
2010-06-30 05:15:29 51°15.809 2°53.567 6.5 21 16.3 101910 48
2010-06-30 05:15:33 51°15.82 2°53.551 6.3 302 16.3 101910 48
2010-06-30 05:15:39 51°15.837 2°53.527 3.3 21 16.4 101920 49
2010-06-30 05:15:44 51°15.852 2°53.508 5.6 277 16.4 101920 49
2010-06-30 05:15:49 51°15.866 2°53.488 6.4 29 16.4 101910 49
2010-06-30 05:15:53 51°15.877 2°53.472 6.1 307 16.4 101910 49
2010-06-30 05:15:59 51°15.895 2°53.45 5.6 21 16.4 101920 49
2010-06-30 05:16:04 51°15.91 2°53.432 6.1 301 16.4 101920 49
2010-06-30 05:16:09 51°15.925 2°53.414 6.2 23 16.4 101920 49
2010-06-30 05:16:13 51°15.938 2°53.401 5.4 308 16.4 101920 49
2010-06-30 05:16:18 51°15.954 2°53.384 5.3 27 16.4 101920 51
2010-06-30 05:16:24 51°15.974 2°53.367 4.6 302 16.4 101920 51
2010-06-30 05:16:29 51°15.991 2°53.354 4.8 28 16.4 101920 50
2010-06-30 05:16:33 51°16.005 2°53.344 4.4 301 16.4 101920 50
2010-06-30 05:16:38 51°16.023 2°53.332 5.1 27 16.4 101920 48
2010-06-30 05:16:44 51°16.044 2°53.32 4.6 307 16.4 101920 48
2010-06-30 05:16:49 51°16.062 2°53.309 4.6 29 16.4 101920 49
2010-06-30 05:16:53 51°16.077 2°53.302 4.3 305 16.4 101920 49
2010-06-30 05:16:58 51°16.095 2°53.293 5.2 28 16.4 101930 49
2010-06-30 05:17:04 51°16.118 2°53.283 3.4 309 16.4 101930 49
2010-06-30 05:17:09 51°16.136 2°53.275 4.3 28 16.4 101920 50
2010-06-30 05:17:14 51°16.155 2°53.268 4.3 306 16.4 101920 50
2010-06-30 05:17:18 51°16.17 2°53.262 4.1 28 16.4 101930 50
2010-06-30 05:17:24 51°16.192 2°53.252 3.9 307 16.4 101930 50
2010-06-30 05:17:29 51°16.211 2°53.245 4.3 25 16.5 101930 48
2010-06-30 05:17:33 51°16.226 2°53.238 4 300 16.5 101930 48
2010-06-30 05:17:39 51°16.249 2°53.23 4.2 21 16.5 101930 50
2010-06-30 05:17:44 51°16.267 2°53.222 4.4 309 16.5 101930 50
2010-06-30 05:17:49 51°16.286 2°53.214 4.2 21 16.5 101930 49
2010-06-30 05:17:54 51°16.305 2°53.207 5 309 16.5 101930 49
2010-06-30 05:17:59 51°16.323 2°53.198 6.5 23 16.6 101930 50
2010-06-30 05:18:04 51°16.342 2°53.19 7.1 308 16.6 101930 50
2010-06-30 05:18:09 51°16.36 2°53.181 7.3 24 16.6 101930 49
2010-06-30 05:18:13 51°16.375 2°53.175 7.4 308 16.6 101930 49
2010-06-30 05:18:19 51°16.398 2°53.165 8 28 16.6 101920 50
2010-06-30 05:18:24 51°16.416 2°53.156 7 307 16.6 101920 50
2010-06-30 05:18:29 51°16.435 2°53.148 7 23 16.7 101920 49
2010-06-30 05:18:33 51°16.449 2°53.141 7.4 309 16.7 101920 49
2010-06-30 05:18:38 51°16.468 2°53.133 7.5 23 16.7 101920 50
2010-06-30 05:18:44 51°16.49 2°53.123 7.9 303 16.7 101920 50
2010-06-30 05:18:49 51°16.509 2°53.115 7.1 25 16.7 101920 50
2010-06-30 05:18:53 51°16.524 2°53.108 7.4 307 16.7 101920 50
2010-06-30 05:18:58 51°16.542 2°53.1 7.4 29 16.7 101920 49
2010-06-30 05:19:04 51°16.565 2°53.091 7.2 301 16.7 101920 49
2010-06-30 05:19:09 51°16.584 2°53.083 7.4 30 16.8 101920 49
2010-06-30 05:19:14 51°16.602 2°53.075 7.3 305 16.8 101920 49
2010-06-30 05:19:18 51°16.617 2°53.069 7.2 22 16.8 101920 49
2010-06-30 05:19:24 51°16.639 2°53.059 6.9 307 16.8 101920 49
2010-06-30 05:19:29 51°16.658 2°53.05 7.2 29 16.8 101920 51
2010-06-30 05:19:34 51°16.676 2°53.041 6.6 304 16.8 101920 51
2010-06-30 05:19:38 51°16.691 2°53.034 6.9 26 16.8 101910 50
2010-06-30 05:19:44 51°16.713 2°53.023 8.5 284 16.8 101910 50
2010-06-30 05:19:49 51°16.731 2°53.014 6.7 28 16.8 101920 51
2010-06-30 05:19:53 51°16.746 2°53.006 7.1 307 16.8 101920 51
2010-06-30 05:19:59 51°16.768 2°52.996 8 28 16.8 101910 49
2010-06-30 05:20:04 51°16.786 2°52.987 7.7 301 16.8 101910 49
2010-06-30 05:20:09 51°16.805 2°52.979 7.5 24 16.9 101910 50
2010-06-30 05:20:14 51°16.823 2°52.97 8.5 308 16.9 101910 50
2010-06-30 05:20:18 51°16.838 2°52.964 7.8 26 16.9 101910 49
2010-06-30 05:20:24 51°16.859 2°52.953 9.8 307 16.9 101910 49
2010-06-30 05:20:29 51°16.877 2°52.944 8.1 26 16.9 101910 50
2010-06-30 05:20:33 51°16.891 2°52.936 6.8 302 16.9 101910 50
2010-06-30 05:20:39 51°16.913 2°52.925 7.5 28 16.9 101910 49
2010-06-30 05:20:44 51°16.931 2°52.915 7.7 306 16.9 101910 49
2010-06-30 05:20:49 51°16.949 2°52.905 8.1 21 16.9 101900 49
2010-06-30 05:20:53 51°16.963 2°52.897 8.9 308 16.9 101900 49
2010-06-30 05:20:58 51°16.981 2°52.886 8.7 25 16.9 101910 49
2010-06-30 05:21:04 51°17.003 2°52.873 8.5 304 16.9 101910 49
2010-06-30 05:21:09 51°17.021 2°52.862 8.9 21 16.9 101910 49
2010-06-30 05:21:13 51°17.035 2°52.853 8.7 308 16.9 101910 49
2010-06-30 05:21:19 51°17.057 2°52.839 8.3 20 16.9 101910 50
2010-06-30 05:21:24 51°17.075 2°52.828 8.3 302 16.9 101910 50
2010-06-30 05:21:29 51°17.093 2°52.816 9.1 24 16.9 101910 49
2010-06-30 05:21:34 51°17.111 2°52.804 7 306 16.9 101910 49
2010-06-30 05:21:38 51°17.125 2°52.795 7.7 21 16.9 101900 49
2010-06-30 05:21:44 51°17.146 2°52.781 8.2 309 16.9 101900 49
2010-06-30 05:21:49 51°17.164 2°52.767 8.1 27 16.9 101900 49
2010-06-30 05:21:53 51°17.178 2°52.758 8.4 308 16.9 101900 49
2010-06-30 05:21:59 51°17.198 2°52.741 7.8 26 16.9 101900 50
2010-06-30 05:22:04 51°17.215 2°52.727 9 309 16.9 101900 50
2010-06-30 05:22:09 51°17.232 2°52.713 8.5 22 16.9 101910 50
2010-06-30 05:22:14 51°17.249 2°52.699 9 304 16.9 101910 50
2010-06-30 05:22:18 51°17.262 2°52.687 9.5 28 16.9 101910 49
2010-06-30 05:22:24 51°17.282 2°52.669 9.1 302 16.9 101910 49
2010-06-30 05:22:29 51°17.298 2°52.654 8.3 25 16.9 101900 50
2010-06-30 05:22:33 51°17.312 2°52.641 8.2 307 16.9 101900 50
2010-06-30 05:22:39 51°17.331 2°52.623 7.9 27 16.9 101900 50
2010-06-30 05:22:44 51°17.348 2°52.608 9.3 307 16.9 101900 50
2010-06-30 05:22:49 51°17.364 2°52.593 9.3 22 16.9 101900 50
2010-06-30 05:22:53 51°17.377 2°52.58 8.9 303 16.9 101900 50
2010-06-30 05:22:58 51°17.394 2°52.564 8.7 24 16.9 101900 47
2010-06-30 05:23:04 51°17.413 2°52.545 8.2 309 16.9 101900 47
2010-06-30 05:23:09 51°17.429 2°52.529 8.6 24 16.9 101900 49
2010-06-30 05:23:13 51°17.442 2°52.516 8.3 307 16.9 101900 49
2010-06-30 05:23:18 51°17.457 2°52.499 9 27 16.9 101900 50
2010-06-30 05:23:24 51°17.477 2°52.479 8.9 306 16.9 101900 50
2010-06-30 05:23:29 51°17.492 2°52.463 8.8 23 16.9 101900 50
2010-06-30 05:23:34 51°17.508 2°52.446 8.5 305 16.9 101900 50
2010-06-30 05:23:38 51°17.521 2°52.433 8.6 26 16.9 101900 50
2010-06-30 05:23:44 51°17.54 2°52.414 8.8 308 16.9 101900 50
2010-06-30 05:23:49 51°17.556 2°52.398 8.4 22 16.9 101900 51
2010-06-30 05:23:53 51°17.569 2°52.385 8.6 309 16.9 101900 51
2010-06-30 05:23:58 51°17.585 2°52.368 8.2 22 16.9 101900 49
2010-06-30 05:24:04 51°17.604 2°52.349 8.1 303 16.9 101900 49
2010-06-30 05:24:09 51°17.62 2°52.333 8.3 23 16.9 101900 49
2010-06-30 05:24:14 51°17.636 2°52.317 7.6 303 16.9 101900 49
2010-06-30 05:24:18 51°17.649 2°52.304 8.7 20 16.9 101900 49
2010-06-30 05:24:24 51°17.667 2°52.283 7.5 308 16.9 101900 49
2010-06-30 05:24:29 51°17.683 2°52.266 8 23 16.9 101900 49
2010-06-30 05:24:33 51°17.695 2°52.252 7.9 307 16.9 101900 49
2010-06-30 05:24:39 51°17.714 2°52.231 8.8 28 16.8 101910 49
2010-06-30 05:24:44 51°17.73 2°52.214 7.9 301 16.8 101910 49
2010-06-30 05:24:49 51°17.745 2°52.197 7.9 23 16.9 101900 50
2010-06-30 05:24:53 51°17.758 2°52.184 9.1 303 16.9 101900 50
2010-06-30 05:24:59 51°17.776 2°52.162 9 29 16.9 101910 49
2010-06-30 05:25:04 51°17.792 2°52.145 8.1 306 16.9 101910 49
2010-06-30 05:25:09 51°17.808 2°52.128 8.5 20 16.9 101910 50
2010-06-30 05:25:13 51°17.82 2°52.114 8.4 309 16.9 101910 50
2010-06-30 05:25:18 51°17.836 2°52.097 8.4 23 16.9 101910 50
2010-06-30 05:25:24 51°17.854 2°52.076 9 307 16.9 101910 50
2010-06-30 05:25:29 51°17.87 2°52.059 9.5 27 16.9 101900 50
2010-06-30 05:25:34 51°17.886 2°52.042 9 306 16.9 101900 50
2010-06-30 05:25:38 51°17.898 2°52.028 8.1 23 16.9 101900 48
2010-06-30 05:25:44 51°17.917 2°52.008 9.6 307 16.9 101900 48
2010-06-30 05:25:49 51°17.932 2°51.99 8.3 20 16.9 101900 50
2010-06-30 05:25:53 51°17.945 2°51.977 8.7 308 16.9 101900 50
2010-06-30 05:25:58 51°17.96 2°51.96 8.9 23 16.9 101900 49
2010-06-30 05:26:04 51°17.979 2°51.939 8.8 301 16.9 101900 49
2010-06-30 05:26:09 51°17.994 2°51.922 8.5 24 16.9 101900 49
2010-06-30 05:26:14 51°18.01 2°51.905 8.6 307 16.9 101900 49
2010-06-30 05:26:18 51°18.022 2°51.892 8.1 23 16.9 101900 49
2010-06-30 05:26:24 51°18.041 2°51.871 8.9 305 16.9 101900 49
2010-06-30 05:26:29 51°18.056 2°51.854 8.5 24 16.9 101900 50
2010-06-30 05:26:34 51°18.072 2°51.837 9.1 301 16.9 101900 50
2010-06-30 05:26:38 51°18.084 2°51.823 8.8 26 16.9 101910 50
2010-06-30 05:26:44 51°18.103 2°51.803 8.4 301 16.9 101910 50
2010-06-30 05:26:49 51°18.119 2°51.786 9 21 16.9 101900 49
2010-06-30 05:26:53 51°18.131 2°51.772 9.4 304 16.9 101900 49
2010-06-30 05:26:59 51°18.15 2°51.752 8.5 29 16.9 101910 49
2010-06-30 05:27:04 51°18.165 2°51.735 8.4 302 16.9 101910 49
2010-06-30 05:27:09 51°18.181 2°51.717 8.7 23 16.9 101900 49
2010-06-30 05:27:13 51°18.193 2°51.703 9.1 302 16.9 101900 49
2010-06-30 05:27:19 51°18.213 2°51.684 9.5 28 16.8 101910 50
2010-06-30 05:27:24 51°18.228 2°51.667 9.5 303 16.8 101910 50
2010-06-30 05:27:29 51°18.244 2°51.65 8.7 22 16.8 101900 49
2010-06-30 05:27:33 51°18.257 2°51.637 9.1 308 16.8 101900 49
2010-06-30 05:27:38 51°18.273 2°51.62 8.1 22 16.8 101900 50
2010-06-30 05:27:44 51°18.291 2°51.599 9.2 283 16.8 101900 50
2010-06-30 05:27:49 51°18.307 2°51.582 9.9 28 16.8 101900 49
2010-06-30 05:27:53 51°18.319 2°51.568 8.1 304 16.8 101900 49
2010-06-30 05:27:58 51°18.335 2°51.551 9.2 26 16.8 101910 50
2010-06-30 05:28:04 51°18.354 2°51.531 10.5 307 16.8 101910 50
2010-06-30 05:28:09 51°18.369 2°51.513 9.1 27 16.8 101900 49
2010-06-30 05:28:13 51°18.381 2°51.5 9.4 304 16.8 101900 49
2010-06-30 05:28:19 51°18.4 2°51.48 9.2 20 16.8 101900 48
2010-06-30 05:28:24 51°18.416 2°51.463 9.2 303 16.8 101900 48
2010-06-30 05:28:29 51°18.432 2°51.446 9.6 24 16.8 101900 49
2010-06-30 05:28:34 51°18.447 2°51.429 9.8 303 16.8 101900 49
2010-06-30 05:28:38 51°18.46 2°51.416 9.9 23 16.8 101900 49
2010-06-30 05:28:44 51°18.479 2°51.395 9.4 309 16.8 101900 49
2010-06-30 05:28:49 51°18.495 2°51.378 9.8 22 16.7 101900 50
2010-06-30 05:28:53 51°18.507 2°51.365 9.5 304 16.7 101900 50
2010-06-30 05:28:59 51°18.526 2°51.344 9.3 24 16.7 101910 49
2010-06-30 05:29:04 51°18.541 2°51.328 10.3 309 16.7 101910 49
2010-06-30 05:29:09 51°18.557 2°51.31 9.3 23 16.7 101900 49
2010-06-30 05:29:13 51°18.57 2°51.297 8.5 308 16.7 101900 49
2010-06-30 05:29:18 51°18.585 2°51.28 9.5 24 16.7 101900 49
2010-06-30 05:29:24 51°18.604 2°51.26 8.7 305 16.7 101900 49
2010-06-30 05:29:29 51°18.619 2°51.243 9.5 23 16.7 101900 50
2010-06-30 05:29:33 51°18.632 2°51.23 10.6 305 16.7 101900 50
2010-06-30 05:29:39 51°18.651 2°51.209 10.1 21 16.7 101900 50
2010-06-30 05:29:44 51°18.667 2°51.192 9.2 301 16.7 101900 50
2010-06-30 05:29:49 51°18.682 2°51.176 10.2 22 16.7 101900 50
2010-06-30 05:29:53 51°18.695 2°51.162 9.8 302 16.7 101900 50
2010-06-30 05:29:58 51°18.711 2°51.146 9.6 26 16.6 101900 49
2010-06-30 05:30:04 51°18.73 2°51.126 9.3 304 16.6 101900 49
2010-06-30 05:30:09 51°18.746 2°51.11 9.7 22 16.6 101890 50
2010-06-30 05:30:13 51°18.758 2°51.096 9.6 307 16.6 101890 50
2010-06-30 05:30:19 51°18.777 2°51.076 10.5 23 16.6 101900 49
2010-06-30 05:30:24 51°18.792 2°51.059 10 306 16.6 101900 49
2010-06-30 05:30:29 51°18.808 2°51.042 10.2 24 16.6 101900 50
2010-06-30 05:30:34 51°18.823 2°51.025 9.8 304 16.6 101900 50
2010-06-30 05:30:38 51°18.836 2°51.011 10.8 25 16.6 101890 49
2010-06-30 05:30:44 51°18.854 2°50.99 10.9 306 16.6 101890 49
2010-06-30 05:30:49 51°18.869 2°50.972 10.7 21 16.6 101890 49
2010-06-30 05:30:53 51°18.881 2°50.959 9.6 302 16.6 101890 49
2010-06-30 05:30:59 51°18.9 2°50.938 10.1 22 16.6 101890 49
2010-06-30 05:31:04 51°18.915 2°50.921 10.1 305 16.6 101890 49
2010-06-30 05:31:09 51°18.931 2°50.904 9.4 22 16.6 101880 50
2010-06-30 05:31:14 51°18.946 2°50.887 10.2 305 16.6 101880 50
2010-06-30 05:31:18 51°18.959 2°50.873 10.8 21 16.5 101890 49
2010-06-30 05:31:24 51°18.977 2°50.853 11.4 308 16.5 101890 49
2010-06-30 05:31:29 51°18.993 2°50.836 10.5 21 16.5 101890 50
2010-06-30 05:31:33 51°19.005 2°50.822 10.2 304 16.5 101890 50
2010-06-30 05:31:39 51°19.024 2°50.802 10.6 25 16.5 101890 48
2010-06-30 05:31:44 51°19.04 2°50.785 9.7 308 16.5 101890 48
2010-06-30 05:31:49 51°19.055 2°50.767 10.8 26 16.5 101880 49
2010-06-30 05:31:53 51°19.068 2°50.754 10.3 304 16.5 101880 49
2010-06-30 05:31:59 51°19.086 2°50.733 10 24 16.5 101880 50
2010-06-30 05:32:04 51°19.102 2°50.716 10.8 302 16.5 101880 50
2010-06-30 05:32:09 51°19.117 2°50.698 9.8 24 16.5 101890 48
2010-06-30 05:32:13 51°19.13 2°50.685 9.6 308 16.5 101890 48
2010-06-30 05:32:18 51°19.145 2°50.667 8.8 21 16.5 101890 49
2010-06-30 05:32:24 51°19.164 2°50.647 10 303 16.5 101890 49
2010-06-30 05:32:29 51°19.179 2°50.629 9.2 25 16.4 101890 50
2010-06-30 05:32:34 51°19.194 2°50.612 10 303 16.4 101890 50
2010-06-30 05:32:38 51°19.207 2°50.598 9.1 27 16.4 101890 49
2010-06-30 05:32:44 51°19.225 2°50.578 9.5 305 16.4 101890 49
2010-06-30 05:32:49 51°19.241 2°50.56 9.9 24 16.4 101900 50
2010-06-30 05:32:53 51°19.253 2°50.547 9.7 307 16.4 101900 50
2010-06-30 05:32:59 51°19.272 2°50.526 10.6 23 16.4 101890 50
2010-06-30 05:33:04 51°19.287 2°50.509 10.2 306 16.4 101890 50
2010-06-30 05:33:09 51°19.303 2°50.492 10.1 20 16.4 101890 50
2010-06-30 05:33:14 51°19.318 2°50.475 10.1 305 16.4 101890 50
2010-06-30 05:33:18 51°19.331 2°50.461 10.4 23 16.4 101890 50
2010-06-30 05:33:24 51°19.349 2°50.44 9.7 302 16.4 101890 50
2010-06-30 05:33:29 51°19.365 2°50.423 9.8 22 16.4 101890 50
2010-06-30 05:33:33 51°19.377 2°50.409 9 305 16.4 101890 50
2010-06-30 05:33:39 51°19.395 2°50.388 10.2 25 16.4 101890 47
2010-06-30 05:33:44 51°19.411 2°50.371 8.8 307 16.4 101890 47
2010-06-30 05:33:49 51°19.426 2°50.354 8.2 23 16.4 101890 49
2010-06-30 05:33:53 51°19.438 2°50.34 9.7 301 16.4 101890 49
2010-06-30 05:33:59 51°19.457 2°50.319 9.7 27 16.4 101890 49
2010-06-30 05:34:04 51°19.473 2°50.302 9.4 303 16.4 101890 49
2010-06-30 05:34:09 51°19.488 2°50.285 8.4 23 16.4 101890 50
2010-06-30 05:34:13 51°19.5 2°50.271 8.7 306 16.4 101890 50
2010-06-30 05:34:19 51°19.519 2°50.25 8.2 23 16.4 101890 50
2010-06-30 05:34:24 51°19.534 2°50.232 9.2 302 16.4 101890 50
2010-06-30 05:34:29 51°19.55 2°50.215 9.5 21 16.4 101900 50
2010-06-30 05:34:34 51°19.565 2°50.198 9.8 303 16.4 101900 50
2010-06-30 05:34:38 51°19.578 2°50.184 8.2 25 16.3 101900 50
2010-06-30 05:34:44 51°19.596 2°50.163 9.5 307 16.3 101900 50
2010-06-30 05:34:49 51°19.612 2°50.145 8.4 22 16.4 101900 50
2010-06-30 05:34:53 51°19.624 2°50.131 8 308 16.4 101900 50
2010-06-30 05:34:58 51°19.64 2°50.114 8.5 28 16.3 101900 49
2010-06-30 05:35:04 51°19.658 2°50.093 10.3 308 16.3 101900 49
2010-06-30 05:35:09 51°19.674 2°50.076 9.9 28 16.3 101890 50
2010-06-30 05:35:14 51°19.689 2°50.059 9.5 305 16.3 101890 50
2010-06-30 05:35:18 51°19.702 2°50.045 10.2 24 16.3 101900 50
2010-06-30 05:35:24 51°19.721 2°50.024 9.4 302 16.3 101900 50
2010-06-30 05:35:29 51°19.736 2°50.007 8.6 25 16.3 101900 50
2010-06-30 05:35:33 51°19.749 2°49.993 10 304 16.3 101900 50
2010-06-30 05:35:39 51°19.767 2°49.972 9.6 26 16.3 101890 50
2010-06-30 05:35:44 51°19.782 2°49.954 9.5 303 16.3 101890 50
2010-06-30 05:35:49 51°19.798 2°49.937 9.7 28 16.3 101900 50
2010-06-30 05:35:54 51°19.814 2°49.92 9.3 307 16.3 101900 50
2010-06-30 05:35:59 51°19.829 2°49.903 9 28 16.3 101900 49
2010-06-30 05:36:04 51°19.845 2°49.885 9.9 305 16.3 101900 49
2010-06-30 05:36:09 51°19.86 2°49.868 9.8 23 16.2 101890 49
2010-06-30 05:36:13 51°19.873 2°49.854 10 309 16.2 101890 49
2010-06-30 05:36:19 51°19.892 2°49.834 8.4 21 16.2 101900 48
2010-06-30 05:36:24 51°19.907 2°49.817 8.8 301 16.2 101900 48
2010-06-30 05:36:29 51°19.923 2°49.8 9.9 21 16.2 101900 50
2010-06-30 05:36:33 51°19.936 2°49.786 11 306 16.2 101900 50
2010-06-30 05:36:38 51°19.951 2°49.769 9.3 23 16.2 101890 50
2010-06-30 05:36:44 51°19.97 2°49.749 10.7 276 16.2 101890 50
2010-06-30 05:36:49 51°19.986 2°49.732 9.8 22 16.2 101900 50
2010-06-30 05:36:53 51°19.999 2°49.718 9.9 302 16.2 101900 50
2010-06-30 05:36:58 51°20.015 2°49.702 10.4 29 16.2 101890 49
2010-06-30 05:37:04 51°20.034 2°49.681 9.8 300 16.2 101890 49
2010-06-30 05:37:09 51°20.05 2°49.665 10 27 16.2 101890 49
2010-06-30 05:37:13 51°20.062 2°49.651 9.9 308 16.2 101890 49
2010-06-30 05:37:19 51°20.082 2°49.631 9.4 20 16.2 101890 49
2010-06-30 05:37:24 51°20.097 2°49.614 11.1 304 16.2 101890 49
2010-06-30 05:37:29 51°20.113 2°49.597 11.1 24 16.2 101890 50
2010-06-30 05:37:34 51°20.129 2°49.58 9.9 306 16.2 101890 50
2010-06-30 05:37:38 51°20.142 2°49.567 11.1 24 16.2 101890 50
2010-06-30 05:37:44 51°20.161 2°49.547 10.3 303 16.2 101890 50
2010-06-30 05:37:49 51°20.176 2°49.53 10 25 16.1 101890 49
2010-06-30 05:37:53 51°20.189 2°49.517 10.4 303 16.1 101890 49
2010-06-30 05:37:59 51°20.208 2°49.496 11.3 27 16.1 101890 48
2010-06-30 05:38:04 51°20.223 2°49.479 11.4 302 16.1 101890 48
2010-06-30 05:38:09 51°20.239 2°49.462 10 22 16.1 101880 49
2010-06-30 05:38:13 51°20.252 2°49.449 9.6 308 16.1 101880 49
2010-06-30 05:38:18 51°20.267 2°49.432 12.7 24 16.1 101890 50
2010-06-30 05:38:24 51°20.286 2°49.412 11 306 16.1 101890 50
2010-06-30 05:38:29 51°20.302 2°49.395 10.3 25 16.1 101880 49
2010-06-30 05:38:33 51°20.314 2°49.382 10.4 305 16.1 101880 49
2010-06-30 05:38:39 51°20.333 2°49.361 12.7 28 16.1 101880 49
2010-06-30 05:38:44 51°20.348 2°49.344 12.1 282 16.1 101880 49
2010-06-30 05:38:49 51°20.364 2°49.327 11.2 23 16.1 101880 49
2010-06-30 05:38:53 51°20.376 2°49.314 11.4 302 16.1 101880 49
2010-06-30 05:38:58 51°20.392 2°49.296 11.2 27 16 101880 48
2010-06-30 05:39:04 51°20.411 2°49.277 10.6 302 16 101880 48
2010-06-30 05:39:09 51°20.426 2°49.26 10.3 22 16 101870 49
2010-06-30 05:39:13 51°20.439 2°49.247 11.2 304 16 101870 49
2010-06-30 05:39:19 51°20.458 2°49.226 11.4 25 16 101870 49
2010-06-30 05:39:24 51°20.473 2°49.21 11.1 307 16 101870 49
2010-06-30 05:39:29 51°20.489 2°49.193 9.8 25 16 101870 49
2010-06-30 05:39:34 51°20.505 2°49.177 13 307 16 101870 49
2010-06-30 05:39:38 51°20.517 2°49.163 12.6 23 16 101880 50
2010-06-30 05:39:44 51°20.536 2°49.143 10.7 303 16 101880 50
2010-06-30 05:39:49 51°20.551 2°49.126 10.7 23 16 101880 49
2010-06-30 05:39:53 51°20.564 2°49.112 10.9 305 16 101880 49
2010-06-30 05:39:59 51°20.582 2°49.092 10.8 24 15.9 101870 49
2010-06-30 05:40:04 51°20.598 2°49.075 10.7 307 15.9 101870 49
2010-06-30 05:40:09 51°20.613 2°49.058 11.1 20 15.9 101880 50
2010-06-30 05:40:13 51°20.625 2°49.044 10.2 309 15.9 101880 50
2010-06-30 05:40:18 51°20.641 2°49.028 11.1 24 15.9 101870 49
2010-06-30 05:40:24 51°20.66 2°49.007 10.6 305 15.9 101870 49
2010-06-30 05:40:29 51°20.675 2°48.99 11 24 15.9 101870 49
2010-06-30 05:40:33 51°20.688 2°48.977 10.4 305 15.9 101870 49
2010-06-30 05:40:39 51°20.706 2°48.957 10.8 24 15.9 101870 49
2010-06-30 05:40:44 51°20.722 2°48.94 10 282 15.9 101870 49
2010-06-30 05:40:49 51°20.738 2°48.924 8.9 23 15.9 101880 50
2010-06-30 05:40:53 51°20.75 2°48.91 10.2 304 15.9 101880 50
2010-06-30 05:40:58 51°20.766 2°48.893 10.2 24 15.8 101870 50
2010-06-30 05:41:04 51°20.784 2°48.873 10 307 15.8 101870 50
2010-06-30 05:41:09 51°20.8 2°48.856 10.6 25 15.8 101870 48
2010-06-30 05:41:13 51°20.812 2°48.842 12.6 305 15.8 101870 48
2010-06-30 05:41:18 51°20.828 2°48.825 14.3 27 15.8 101880 50
2010-06-30 05:41:24 51°20.847 2°48.805 12.2 304 15.8 101880 50
2010-06-30 05:41:29 51°20.862 2°48.788 12.5 23 15.8 101870 50
2010-06-30 05:41:34 51°20.878 2°48.771 10.3 306 15.8 101870 50
2010-06-30 05:41:38 51°20.89 2°48.758 11.2 23 15.8 101880 48
2010-06-30 05:41:44 51°20.909 2°48.737 11.1 306 15.8 101880 48
2010-06-30 05:41:49 51°20.924 2°48.72 10.3 22 15.8 101870 50
2010-06-30 05:41:53 51°20.937 2°48.707 10.7 302 15.8 101870 50
2010-06-30 05:41:58 51°20.952 2°48.69 10 28 15.8 101870 50
2010-06-30 05:42:04 51°20.97 2°48.669 10.3 306 15.8 101870 50
2010-06-30 05:42:09 51°20.986 2°48.652 10.9 23 15.8 101880 48
2010-06-30 05:42:14 51°21.001 2°48.635 12.8 307 15.8 101880 48
2010-06-30 05:42:18 51°21.014 2°48.622 12.8 27 15.7 101880 49
2010-06-30 05:42:24 51°21.033 2°48.602 10.8 303 15.7 101880 49
2010-06-30 05:42:29 51°21.048 2°48.585 12.9 27 15.8 101880 49
2010-06-30 05:42:33 51°21.061 2°48.572 13 306 15.8 101880 49
2010-06-30 05:42:39 51°21.08 2°48.552 11.6 24 15.7 101880 49
2010-06-30 05:42:44 51°21.096 2°48.537 12.2 282 15.7 101880 49
2010-06-30 05:42:49 51°21.111 2°48.521 12.8 25 15.8 101870 49
2010-06-30 05:42:53 51°21.125 2°48.509 11.7 306 15.8 101870 49
2010-06-30 05:42:59 51°21.143 2°48.489 11.1 20 15.7 101870 49
2010-06-30 05:43:04 51°21.16 2°48.474 11.3 301 15.7 101870 49
2010-06-30 05:43:09 51°21.176 2°48.458 12 27 15.7 101870 48
2010-06-30 05:43:13 51°21.189 2°48.445 13 309 15.7 101870 48
2010-06-30 05:43:18 51°21.205 2°48.43 11.8 21 15.7 101870 48
2010-06-30 05:43:24 51°21.224 2°48.411 12.3 303 15.7 101870 48
2010-06-30 05:43:29 51°21.24 2°48.395 12.4 23 15.7 101870 50
2010-06-30 05:43:34 51°21.256 2°48.379 11.8 304 15.7 101870 50
2010-06-30 05:43:38 51°21.269 2°48.366 11.8 21 15.7 101870 49
2010-06-30 05:43:44 51°21.288 2°48.348 10.7 302 15.7 101870 49
2010-06-30 05:43:49 51°21.305 2°48.331 10.3 27 15.6 101880 48
2010-06-30 05:43:53 51°21.317 2°48.319 11.2 305 15.6 101880 48
2010-06-30 05:43:58 51°21.334 2°48.303 9.6 27 15.6 101880 50
2010-06-30 05:44:04 51°21.353 2°48.284 9.6 305 15.6 101880 50
2010-06-30 05:44:09 51°21.369 2°48.268 10.2 24 15.6 101870 48
2010-06-30 05:44:14 51°21.385 2°48.252 10.8 306 15.6 101870 48
2010-06-30 05:44:18 51°21.398 2°48.239 9.5 21 15.6 101880 49
2010-06-30 05:44:24 51°21.417 2°48.22 9.4 304 15.6 101880 49
2010-06-30 05:44:29 51°21.433 2°48.204 8.8 21 15.6 101880 49
2010-06-30 05:44:34 51°21.449 2°48.188 12.1 308 15.6 101880 49
2010-06-30 05:44:38 51°21.462 2°48.176 12.3 22 15.6 101870 48
2010-06-30 05:44:44 51°21.481 2°48.156 10.5 284 15.6 101870 48
2010-06-30 05:44:49 51°21.498 2°48.141 11.1 23 15.6 101880 50
2010-06-30 05:44:53 51°21.51 2°48.128 10.5 303 15.6 101880 50
2010-06-30 05:44:59 51°21.529 2°48.108 10.5 26 15.6 101880 49
2010-06-30 05:45:04 51°21.545 2°48.093 12.5 307 15.6 101880 49
2010-06-30 05:45:09 51°21.561 2°48.077 11.7 27 15.6 101880 49
2010-06-30 05:45:13 51°21.574 2°48.064 10.4 303 15.6 101880 49
2010-06-30 05:45:19 51°21.593 2°48.044 11.6 24 15.6 101880 49
2010-06-30 05:45:24 51°21.609 2°48.029 10.1 306 15.6 101880 49
2010-06-30 05:45:29 51°21.624 2°48.012 10.8 24 15.6 101880 48
2010-06-30 05:45:33 51°21.637 2°48 12.5 306 15.6 101880 48
2010-06-30 05:45:38 51°21.653 2°47.984 11.3 20 15.6 101880 49
2010-06-30 05:45:44 51°21.672 2°47.965 11.8 308 15.6 101880 49
2010-06-30 05:45:49 51°21.688 2°47.948 9.1 25 15.6 101880 50
2010-06-30 05:45:53 51°21.701 2°47.936 9.2 305 15.6 101880 50
2010-06-30 05:45:58 51°21.716 2°47.92 9.7 23 15.6 101880 48
2010-06-30 05:46:04 51°21.736 2°47.901 9.6 303 15.6 101880 48
2010-06-30 05:46:09 51°21.752 2°47.885 8.8 26 15.6 101880 48
2010-06-30 05:46:13 51°21.765 2°47.872 4.4 307 15.6 101880 48
2010-06-30 05:46:19 51°21.784 2°47.853 11.6 23 15.5 101880 50
2010-06-30 05:46:24 51°21.8 2°47.836 9.4 303 15.5 101880 50
2010-06-30 05:46:29 51°21.816 2°47.82 8.6 25 15.5 101880 49
2010-06-30 05:46:34 51°21.832 2°47.804 9.4 300 15.5 101880 49
2010-06-30 05:46:38 51°21.845 2°47.791 9.1 24 15.5 101880 49
2010-06-30 05:46:44 51°21.864 2°47.772 9.2 282 15.5 101880 49
2010-06-30 05:46:49 51°21.881 2°47.757 9.4 26 15.5 101880 48
2010-06-30 05:46:53 51°21.894 2°47.744 9.7 303 15.5 101880 48
2010-06-30 05:46:59 51°21.914 2°47.725 10.3 26 15.5 101880 47
2010-06-30 05:47:04 51°21.93 2°47.71 11.2 309 15.5 101880 47
2010-06-30 05:47:09 51°21.947 2°47.694 10.2 25 15.5 101880 48
2010-06-30 05:47:13 51°21.96 2°47.681 9.7 306 15.5 101880 48
2010-06-30 05:47:19 51°21.979 2°47.662 10.5 26 15.5 101880 49
2010-06-30 05:47:24 51°21.996 2°47.646 9.1 306 15.5 101880 49
2010-06-30 05:47:29 51°22.012 2°47.631 9.9 25 15.5 101880 49
2010-06-30 05:47:33 51°22.026 2°47.618 11 310 15.5 101880 49
2010-06-30 05:47:39 51°22.045 2°47.599 10.4 27 15.5 101870 48
2010-06-30 05:47:44 51°22.062 2°47.584 11.4 305 15.5 101870 48
2010-06-30 05:47:49 51°22.078 2°47.568 11.4 27 15.5 101880 50
2010-06-30 05:47:53 51°22.092 2°47.555 10.7 302 15.5 101880 50
2010-06-30 05:47:58 51°22.107 2°47.539 11.1 25 15.5 101880 49
2010-06-30 05:48:04 51°22.127 2°47.52 10.8 302 15.5 101880 49
2010-06-30 05:48:09 51°22.143 2°47.505 10.6 25 15.5 101870 48
2010-06-30 05:48:13 51°22.157 2°47.493 10.4 302 15.5 101870 48
2010-06-30 05:48:19 51°22.176 2°47.474 10.6 29 15.5 101870 49
2010-06-30 05:48:24 51°22.192 2°47.458 10.9 307 15.5 101870 49
2010-06-30 05:48:29 51°22.209 2°47.442 9.9 28 15.5 101870 49
2010-06-30 05:48:34 51°22.225 2°47.427 11.3 301 15.5 101870 49
2010-06-30 05:48:38 51°22.238 2°47.415 12.5 28 15.5 101870 48
2010-06-30 05:48:44 51°22.258 2°47.396 10.5 284 15.5 101870 48
2010-06-30 05:48:49 51°22.274 2°47.381 11 22 15.4 101870 49
2010-06-30 05:48:53 51°22.287 2°47.369 10.7 302 15.4 101870 49
2010-06-30 05:48:59 51°22.307 2°47.35 10 24 15.4 101870 49
2010-06-30 05:49:04 51°22.323 2°47.334 9.4 310 15.4 101870 49
2010-06-30 05:49:09 51°22.34 2°47.319 8.4 24 15.4 101870 49
2010-06-30 05:49:14 51°22.356 2°47.303 9.4 303 15.4 101870 49
2010-06-30 05:49:18 51°22.369 2°47.291 10.4 22 15.4 101870 50
2010-06-30 05:49:24 51°22.389 2°47.272 9.4 308 15.4 101870 50
2010-06-30 05:49:29 51°22.405 2°47.257 10.1 24 15.4 101870 48
2010-06-30 05:49:33 51°22.418 2°47.244 9.2 308 15.4 101870 48
2010-06-30 05:49:39 51°22.438 2°47.225 11.4 26 15.4 101870 47
2010-06-30 05:49:44 51°22.454 2°47.209 11.9 306 15.4 101870 47
2010-06-30 05:49:49 51°22.47 2°47.194 10.2 23 15.4 101860 48
2010-06-30 05:49:53 51°22.483 2°47.181 10.8 308 15.4 101860 48
2010-06-30 05:49:59 51°22.503 2°47.163 10.1 26 15.4 101860 50
2010-06-30 05:50:04 51°22.519 2°47.147 11.5 304 15.4 101860 50
2010-06-30 05:50:09 51°22.536 2°47.132 10.8 27 15.4 101870 50
2010-06-30 05:50:14 51°22.553 2°47.118 10 308 15.4 101870 50
2010-06-30 05:50:18 51°22.567 2°47.108 9.5 26 15.4 101870 49
2010-06-30 05:50:24 51°22.588 2°47.094 9.3 306 15.4 101870 49
2010-06-30 05:50:29 51°22.605 2°47.082 9.6 29 15.3 101870 48
2010-06-30 05:50:33 51°22.619 2°47.073 9.6 305 15.3 101870 48
2010-06-30 05:50:38 51°22.636 2°47.058 10 26 15.3 101880 48
2010-06-30 05:50:44 51°22.656 2°47.041 10.5 279 15.3 101880 48
2010-06-30 05:50:49 51°22.671 2°47.024 11.5 27 15.4 101870 48
2010-06-30 05:50:53 51°22.684 2°47.011 10.7 306 15.4 101870 48
2010-06-30 05:50:59 51°22.701 2°46.989 10.1 28 15.4 101880 50
2010-06-30 05:51:04 51°22.717 2°46.972 11.8 303 15.4 101880 50
2010-06-30 05:51:09 51°22.731 2°46.953 11.8 26 15.4 101870 48
2010-06-30 05:51:14 51°22.746 2°46.934 11.2 302 15.4 101870 48
2010-06-30 05:51:18 51°22.758 2°46.918 9.8 23 15.4 101870 49
2010-06-30 05:51:24 51°22.774 2°46.894 10.3 308 15.4 101870 49
2010-06-30 05:51:29 51°22.788 2°46.874 10.4 22 15.4 101870 50
2010-06-30 05:51:33 51°22.799 2°46.857 10.5 303 15.4 101870 50
2010-06-30 05:51:39 51°22.815 2°46.832 12.4 25 15.4 101870 48
2010-06-30 05:51:44 51°22.827 2°46.81 12.2 303 15.4 101870 48
2010-06-30 05:51:49 51°22.841 2°46.789 12 23 15.4 101860 49
2010-06-30 05:51:53 51°22.851 2°46.771 12.1 308 15.4 101860 49
2010-06-30 05:51:59 51°22.866 2°46.745 10.7 25 15.3 101860 49
2010-06-30 05:52:04 51°22.879 2°46.723 11.5 310 15.3 101860 49
2010-06-30 05:52:09 51°22.892 2°46.701 11.3 25 15.3 101860 49
2010-06-30 05:52:13 51°22.902 2°46.683 9.9 305 15.3 101860 49
2010-06-30 05:52:18 51°22.915 2°46.661 10.3 24 15.3 101870 48
2010-06-30 05:52:24 51°22.93 2°46.635 10.9 309 15.3 101870 48
2010-06-30 05:52:29 51°22.943 2°46.612 11.1 22 15.3 101870 50
2010-06-30 05:52:33 51°22.953 2°46.595 10.9 308 15.3 101870 50
2010-06-30 05:52:38 51°22.966 2°46.572 10.5 23 15.3 101870 49
2010-06-30 05:52:44 51°22.981 2°46.547 11.1 283 15.3 101870 49
2010-06-30 05:52:49 51°22.994 2°46.525 10.7 25 15.3 101870 50
2010-06-30 05:52:54 51°23.007 2°46.503 12.1 307 15.3 101870 50
2010-06-30 05:52:58 51°23.017 2°46.485 10.4 23 15.3 101870 50
2010-06-30 05:53:04 51°23.033 2°46.459 10 303 15.3 101870 50
2010-06-30 05:53:09 51°23.046 2°46.437 11.2 25 15.3 101870 49
2010-06-30 05:53:13 51°23.057 2°46.42 11.1 300 15.3 101870 49
2010-06-30 05:53:19 51°23.072 2°46.394 10 27 15.3 101860 49
2010-06-30 05:53:24 51°23.085 2°46.372 10.5 304 15.3 101860 49
2010-06-30 05:53:29 51°23.098 2°46.35 10.9 27 15.3 101870 49
2010-06-30 05:53:34 51°23.11 2°46.327 10.7 308 15.3 101870 49
2010-06-30 05:53:38 51°23.12 2°46.309 10.7 23 15.3 101870 49
2010-06-30 05:53:44 51°23.134 2°46.281 12.2 307 15.3 101870 49
2010-06-30 05:53:49 51°23.147 2°46.259 11 25 15.3 101870 48
2010-06-30 05:53:53 51°23.157 2°46.24 10.6 303 15.3 101870 48
2010-06-30 05:53:59 51°23.171 2°46.213 11.7 24 15.3 101860 48
2010-06-30 05:54:04 51°23.184 2°46.19 10.8 301 15.3 101860 48
2010-06-30 05:54:09 51°23.196 2°46.167 11.5 24 15.3 101870 48
2010-06-30 05:54:13 51°23.205 2°46.149 10.7 303 15.3 101870 48
2010-06-30 05:54:18 51°23.217 2°46.127 10.3 22 15.3 101870 48
2010-06-30 05:54:24 51°23.232 2°46.099 9.9 300 15.3 101870 48
2010-06-30 05:54:29 51°23.244 2°46.076 9.3 23 15.3 101870 48
2010-06-30 05:54:33 51°23.253 2°46.057 9.9 303 15.3 101870 48
2010-06-30 05:54:38 51°23.265 2°46.034 10 22 15.3 101860 50
2010-06-30 05:54:44 51°23.28 2°46.007 10 279 15.3 101860 50
2010-06-30 05:54:49 51°23.292 2°45.983 10.1 27 15.3 101860 49
2010-06-30 05:54:54 51°23.303 2°45.96 11.2 303 15.3 101860 49
2010-06-30 05:54:58 51°23.313 2°45.942 11.3 21 15.2 101870 46
2010-06-30 05:55:04 51°23.327 2°45.915 11.5 305 15.2 101870 46
2010-06-30 05:55:09 51°23.339 2°45.892 10.8 23 15.3 101870 48
2010-06-30 05:55:14 51°23.351 2°45.87 11.8 304 15.3 101870 48
2010-06-30 05:55:18 51°23.361 2°45.851 10.4 22 15.2 101870 49
2010-06-30 05:55:24 51°23.376 2°45.824 10.1 307 15.2 101870 49
2010-06-30 05:55:29 51°23.388 2°45.801 10 23 15.2 101860 49
2010-06-30 05:55:33 51°23.398 2°45.782 10.5 307 15.2 101860 49
2010-06-30 05:55:39 51°23.412 2°45.755 11 25 15.2 101860 49
2010-06-30 05:55:44 51°23.424 2°45.732 10.9 305 15.2 101860 49
2010-06-30 05:55:49 51°23.437 2°45.709 11.2 22 15.2 101870 49
2010-06-30 05:55:53 51°23.446 2°45.69 10.5 302 15.2 101870 49
2010-06-30 05:55:58 51°23.459 2°45.668 10.8 22 15.2 101870 49
2010-06-30 05:56:04 51°23.474 2°45.64 9.8 307 15.2 101870 49
2010-06-30 05:56:09 51°23.486 2°45.617 9.7 20 15.2 101870 49
2010-06-30 05:56:13 51°23.496 2°45.599 9.5 303 15.2 101870 49
2010-06-30 05:56:19 51°23.51 2°45.571 9.4 24 15.2 101860 48
2010-06-30 05:56:24 51°23.522 2°45.548 10.3 303 15.2 101860 48
2010-06-30 05:56:29 51°23.534 2°45.526 10.1 26 15.2 101870 49
2010-06-30 05:56:33 51°23.543 2°45.508 10 307 15.2 101870 49
2010-06-30 05:56:38 51°23.555 2°45.485 11.1 26 15.2 101870 48
2010-06-30 05:56:44 51°23.569 2°45.458 12.3 306 15.2 101870 48
2010-06-30 05:56:49 51°23.581 2°45.435 11.2 24 15.2 101870 50
2010-06-30 05:56:53 51°23.59 2°45.417 9.7 310 15.2 101870 50
2010-06-30 05:56:58 51°23.602 2°45.394 10.5 22 15.2 101860 48
2010-06-30 05:57:04 51°23.619 2°45.368 9.8 306 15.2 101860 48
2010-06-30 05:57:09 51°23.631 2°45.345 10.8 26 15.2 101860 48
2010-06-30 05:57:13 51°23.641 2°45.327 10.4 304 15.2 101860 48
2010-06-30 05:57:18 51°23.653 2°45.305 10.3 27 15.2 101870 49
2010-06-30 05:57:24 51°23.668 2°45.277 11 308 15.2 101870 49
2010-06-30 05:57:29 51°23.68 2°45.255 10.7 26 15.2 101870 49
2010-06-30 05:57:33 51°23.69 2°45.237 12.3 306 15.2 101870 49
2010-06-30 05:57:38 51°23.701 2°45.214 11.7 24 15.2 101860 48
2010-06-30 05:57:44 51°23.717 2°45.188 11.2 306 15.2 101860 48
2010-06-30 05:57:49 51°23.73 2°45.166 10.9 27 15.2 101860 48
2010-06-30 05:57:53 51°23.74 2°45.149 11.5 305 15.2 101860 48
2010-06-30 05:57:59 51°23.755 2°45.122 11.5 23 15.2 101860 49
2010-06-30 05:58:04 51°23.767 2°45.099 11.5 306 15.2 101860 49
2010-06-30 05:58:09 51°23.779 2°45.077 11.4 26 15.1 101860 49
2010-06-30 05:58:14 51°23.791 2°45.055 9.9 307 15.1 101860 49
2010-06-30 05:58:18 51°23.8 2°45.036 11.6 28 15.1 101870 49
2010-06-30 05:58:24 51°23.814 2°45.009 10 305 15.1 101870 49
2010-06-30 05:58:29 51°23.825 2°44.985 10.6 25 15.1 101870 49
2010-06-30 05:58:33 51°23.834 2°44.967 11.2 306 15.1 101870 49
2010-06-30 05:58:39 51°23.846 2°44.936 10.3 26 15.1 101860 49
2010-06-30 05:58:44 51°23.857 2°44.913 8.3 282 15.1 101860 49
2010-06-30 05:58:49 51°23.869 2°44.89 10.1 21 15.1 101870 49
2010-06-30 05:58:53 51°23.878 2°44.871 10.1 309 15.1 101870 49
2010-06-30 05:58:58 51°23.888 2°44.847 9.9 23 15.1 101870 49
2010-06-30 05:59:04 51°23.901 2°44.817 9.9 307 15.1 101870 49
2010-06-30 05:59:09 51°23.911 2°44.793 9.3 25 15.1 101870 49
2010-06-30 05:59:14 51°23.922 2°44.769 10.5 300 15.1 101870 49
2010-06-30 05:59:18 51°23.931 2°44.75 11.5 24 15.1 101870 48
2010-06-30 05:59:24 51°23.943 2°44.721 12.2 301 15.1 101870 48
2010-06-30 05:59:29 51°23.955 2°44.697 9.8 29 15.1 101870 48
2010-06-30 05:59:33 51°23.963 2°44.678 9.5 307 15.1 101870 48
2010-06-30 05:59:38 51°23.974 2°44.654 8.8 27 15.1 101870 48
2010-06-30 05:59:44 51°23.986 2°44.625 11 306 15.1 101870 48
2010-06-30 05:59:49 51°23.995 2°44.601 10.4 23 15.1 101870 50
2010-06-30 05:59:54 51°24.006 2°44.576 10.9 304 15.1 101870 50
2010-06-30 05:59:58 51°24.014 2°44.557 10.5 28 15.1 101870 49
2010-06-30 06:00:04 51°24.027 2°44.527 10.3 301 15.1 101870 49
2010-06-30 06:00:09 51°24.038 2°44.502 9.3 22 15.1 101870 48
2010-06-30 06:00:14 51°24.048 2°44.478 9.9 307 15.1 101870 48
2010-06-30 06:00:19 51°24.059 2°44.454 10.1 27 15.1 101860 47
2010-06-30 06:00:24 51°24.069 2°44.43 9.9 304 15.1 101860 47
2010-06-30 06:00:29 51°24.08 2°44.406 9.5 315 15.1 101860 49
2010-06-30 06:00:33 51°24.088 2°44.386 11.3 308 15.1 101860 49
2010-06-30 06:00:38 51°24.099 2°44.362 10.5 315 15.1 101870 49
2010-06-30 06:00:44 51°24.112 2°44.334 11.1 282 15.1 101870 49
2010-06-30 06:00:49 51°24.123 2°44.31 11.5 21 15 101870 48
2010-06-30 06:00:53 51°24.131 2°44.29 12 309 15 101870 48
2010-06-30 06:00:59 51°24.144 2°44.262 10.4 26 15 101870 49
2010-06-30 06:01:04 51°24.155 2°44.238 12 306 15 101870 49
2010-06-30 06:01:09 51°24.166 2°44.214 11.7 25 15.1 101870 48
2010-06-30 06:01:13 51°24.175 2°44.195 11.8 304 15.1 101870 48
2010-06-30 06:01:18 51°24.186 2°44.171 12.1 24 15 101870 49
2010-06-30 06:01:24 51°24.198 2°44.141 11.1 306 15 101870 49
2010-06-30 06:01:29 51°24.209 2°44.118 11.8 27 15 101870 49
2010-06-30 06:01:33 51°24.217 2°44.098 12 305 15 101870 49
2010-06-30 06:01:38 51°24.228 2°44.074 12 25 15.1 101860 49
2010-06-30 06:01:43 51°24.239 2°44.05 12.7 307 15.1 101860 49
2010-06-30 06:01:49 51°24.253 2°44.022 11.5 23 15.1 101870 49
2010-06-30 06:01:53 51°24.263 2°44.004 11.8 305 15.1 101870 49
2010-06-30 06:01:58 51°24.275 2°43.981 10 24 15 101860 48
2010-06-30 06:02:03 51°24.287 2°43.959 10.7 308 15 101860 48
2010-06-30 06:02:09 51°24.302 2°43.933 9.9 21 15 101860 48
2010-06-30 06:02:13 51°24.313 2°43.916 10.9 308 15 101860 48
2010-06-30 06:02:18 51°24.326 2°43.895 11.2 26 15 101860 49
2010-06-30 06:02:24 51°24.343 2°43.871 10.9 304 15 101860 49
2010-06-30 06:02:29 51°24.356 2°43.85 10.5 27 15 101860 49
2010-06-30 06:02:34 51°24.368 2°43.83 11.5 306 15 101860 49
2010-06-30 06:02:38 51°24.377 2°43.814 10.6 23 15 101870 49
2010-06-30 06:02:44 51°24.394 2°43.791 10.9 283 15 101870 49
2010-06-30 06:02:49 51°24.409 2°43.773 10.3 21 15 101860 48
2010-06-30 06:02:54 51°24.429 2°43.756 11.6 308 15 101860 48
2010-06-30 06:02:59 51°24.445 2°43.741 10.7 21 15 101870 47
2010-06-30 06:03:04 51°24.459 2°43.722 10.9 303 15 101870 47
2010-06-30 06:03:09 51°24.475 2°43.706 11.1 24 15 101870 48
2010-06-30 06:03:13 51°24.487 2°43.692 10.1 302 15 101870 48
2010-06-30 06:03:19 51°24.506 2°43.671 9.6 24 15 101860 48
2010-06-30 06:03:24 51°24.522 2°43.655 9.2 302 15 101860 48
2010-06-30 06:03:29 51°24.537 2°43.639 9.8 21 15 101870 48
2010-06-30 06:03:33 51°24.55 2°43.626 11.5 304 15 101870 48
2010-06-30 06:03:38 51°24.566 2°43.609 10 22 15 101870 48
2010-06-30 06:03:44 51°24.585 2°43.59 10.3 301 15 101870 48
2010-06-30 06:03:49 51°24.6 2°43.572 10.1 24 15 101860 48
2010-06-30 06:03:53 51°24.613 2°43.559 9.2 305 15 101860 48
2010-06-30 06:03:58 51°24.628 2°43.541 11.6 20 15 101860 49
2010-06-30 06:04:04 51°24.646 2°43.52 10.9 305 15 101860 49
2010-06-30 06:04:09 51°24.661 2°43.503 11.3 25 15 101860 50
2010-06-30 06:04:13 51°24.674 2°43.489 12.2 304 15 101860 50
2010-06-30 06:04:18 51°24.689 2°43.471 11.1 24 15 101870 49
2010-06-30 06:04:24 51°24.707 2°43.45 11.7 308 15 101870 49
2010-06-30 06:04:28 51°24.719 2°43.435 12 20 15 101860 49
2010-06-30 06:04:33 51°24.734 2°43.418 11.1 302 15 101860 49
2010-06-30 06:04:38 51°24.749 2°43.4 11.4 23 15 101860 49
2010-06-30 06:04:44 51°24.767 2°43.379 11.3 284 15 101860 49
2010-06-30 06:04:48 51°24.779 2°43.364 10.8 22 15 101860 48
2010-06-30 06:04:53 51°24.794 2°43.347 10.8 309 15 101860 48
2010-06-30 06:04:58 51°24.809 2°43.328 12.3 24 15 101860 48
2010-06-30 06:05:04 51°24.827 2°43.307 10.9 306 15 101860 48
2010-06-30 06:05:09 51°24.842 2°43.289 10.6 28 14.9 101860 48
2010-06-30 06:05:13 51°24.854 2°43.274 11.2 307 14.9 101860 48
2010-06-30 06:05:18 51°24.869 2°43.256 10.5 25 14.9 101860 49
2010-06-30 06:05:24 51°24.887 2°43.234 11.3 302 14.9 101860 49
2010-06-30 06:05:29 51°24.902 2°43.216 10.2 21 14.9 101860 49
2010-06-30 06:05:33 51°24.914 2°43.202 10.9 307 14.9 101860 49
2010-06-30 06:05:38 51°24.929 2°43.183 10.4 28 14.9 101860 47
2010-06-30 06:05:44 51°24.946 2°43.162 9.8 304 14.9 101860 47
2010-06-30 06:05:49 51°24.961 2°43.144 10.1 23 14.9 101860 49
2010-06-30 06:05:53 51°24.974 2°43.129 10.3 304 14.9 101860 49
2010-06-30 06:05:58 51°24.988 2°43.111 10.5 23 14.9 101860 49
2010-06-30 06:06:04 51°25.006 2°43.089 11.8 304 14.9 101860 49
2010-06-30 06:06:09 51°25.021 2°43.07 12.7 24 14.9 101870 48
2010-06-30 06:06:13 51°25.033 2°43.055 12.3 310 14.9 101870 48
2010-06-30 06:06:18 51°25.048 2°43.037 12.8 21 14.9 101860 49
2010-06-30 06:06:24 51°25.066 2°43.015 12.7 304 14.9 101860 49
2010-06-30 06:06:29 51°25.081 2°42.996 12.5 27 14.9 101860 49
2010-06-30 06:06:33 51°25.093 2°42.982 12.9 305 14.9 101860 49
2010-06-30 06:06:38 51°25.107 2°42.963 12.7 25 14.9 101860 49
2010-06-30 06:06:44 51°25.125 2°42.941 12.2 280 14.9 101860 49
2010-06-30 06:06:49 51°25.14 2°42.922 10.6 27 14.9 101860 49
2010-06-30 06:06:54 51°25.155 2°42.903 10.2 305 14.9 101860 49
2010-06-30 06:06:58 51°25.167 2°42.888 10.2 21 14.9 101860 48
2010-06-30 06:07:04 51°25.185 2°42.866 10.6 307 14.9 101860 48
2010-06-30 06:07:09 51°25.2 2°42.848 11 23 14.9 101860 48
2010-06-30 06:07:13 51°25.212 2°42.833 10.3 306 14.9 101860 48
2010-06-30 06:07:18 51°25.227 2°42.815 10.1 25 14.9 101870 48
2010-06-30 06:07:24 51°25.245 2°42.793 9.6 307 14.9 101870 48
2010-06-30 06:07:29 51°25.26 2°42.774 11.2 24 14.9 101860 49
2010-06-30 06:07:33 51°25.272 2°42.76 11.2 302 14.9 101860 49
2010-06-30 06:07:38 51°25.287 2°42.741 12.1 23 14.9 101860 48
2010-06-30 06:07:44 51°25.305 2°42.72 11.9 280 14.9 101860 48
2010-06-30 06:07:49 51°25.32 2°42.701 11.6 23 14.9 101860 48
2010-06-30 06:07:53 51°25.332 2°42.687 10.4 305 14.9 101860 48
2010-06-30 06:07:59 51°25.35 2°42.665 11.8 21 14.9 101870 48
2010-06-30 06:08:04 51°25.365 2°42.647 11.6 304 14.9 101870 48
2010-06-30 06:08:09 51°25.38 2°42.628 9.6 22 14.9 101870 48
2010-06-30 06:08:13 51°25.392 2°42.613 9.2 306 14.9 101870 48
2010-06-30 06:08:18 51°25.407 2°42.595 10.1 23 14.9 101860 47
2010-06-30 06:08:23 51°25.421 2°42.576 9.3 306 14.9 101860 47
2010-06-30 06:08:29 51°25.439 2°42.554 9.4 28 14.9 101870 48
2010-06-30 06:08:33 51°25.451 2°42.539 9.5 305 14.9 101870 48
2010-06-30 06:08:38 51°25.466 2°42.521 9.7 25 14.9 101860 48
2010-06-30 06:08:44 51°25.485 2°42.499 10.8 308 14.9 101860 48
2010-06-30 06:08:49 51°25.5 2°42.48 11.1 21 14.8 101870 48
2010-06-30 06:08:53 51°25.511 2°42.465 11.8 301 14.8 101870 48
2010-06-30 06:08:58 51°25.526 2°42.447 11.3 29 14.9 101870 48
2010-06-30 06:09:04 51°25.544 2°42.425 11.4 301 14.9 101870 48
2010-06-30 06:09:09 51°25.559 2°42.406 11.7 22 14.9 101870 48
2010-06-30 06:09:13 51°25.571 2°42.391 11.2 308 14.9 101870 48
2010-06-30 06:09:18 51°25.586 2°42.373 10.7 25 14.9 101870 48
2010-06-30 06:09:24 51°25.604 2°42.351 10 307 14.9 101870 48
2010-06-30 06:09:29 51°25.619 2°42.333 10.8 23 14.8 101870 48
2010-06-30 06:09:33 51°25.631 2°42.318 10.2 305 14.8 101870 48
2010-06-30 06:09:38 51°25.647 2°42.301 10.4 26 14.9 101860 48
2010-06-30 06:09:44 51°25.665 2°42.279 9.6 280 14.9 101860 48
2010-06-30 06:09:49 51°25.681 2°42.262 9.8 23 14.8 101870 48
2010-06-30 06:09:53 51°25.693 2°42.248 10.6 302 14.8 101870 48
2010-06-30 06:09:58 51°25.708 2°42.23 9.5 22 14.8 101870 49
2010-06-30 06:10:04 51°25.727 2°42.209 10.1 302 14.8 101870 49
2010-06-30 06:10:09 51°25.742 2°42.191 9.5 22 14.8 101860 48
2010-06-30 06:10:13 51°25.754 2°42.177 11 303 14.8 101860 48
2010-06-30 06:10:18 51°25.769 2°42.16 11.2 23 14.8 101870 48
2010-06-30 06:10:24 51°25.788 2°42.138 11 306 14.8 101870 48
2010-06-30 06:10:29 51°25.803 2°42.12 10.4 24 14.8 101860 49
2010-06-30 06:10:33 51°25.815 2°42.106 11.8 309 14.8 101860 49
2010-06-30 06:10:38 51°25.83 2°42.088 12 23 14.8 101870 49
2010-06-30 06:10:44 51°25.849 2°42.067 10.9 285 14.8 101870 49
2010-06-30 06:10:49 51°25.864 2°42.049 10.3 23 14.8 101870 49
2010-06-30 06:10:53 51°25.876 2°42.034 10 305 14.8 101870 49
2010-06-30 06:10:58 51°25.891 2°42.016 9.6 26 14.8 101870 47
2010-06-30 06:11:03 51°25.906 2°41.998 9.6 306 14.8 101870 47
2010-06-30 06:11:09 51°25.925 2°41.977 9.8 20 14.8 101870 48
2010-06-30 06:11:13 51°25.937 2°41.961 11.7 302 14.8 101870 48
2010-06-30 06:11:18 51°25.952 2°41.944 11.5 22 14.8 101870 49
2010-06-30 06:11:24 51°25.97 2°41.921 12.3 304 14.8 101870 49
2010-06-30 06:11:28 51°25.983 2°41.907 11.8 25 14.8 101870 48
2010-06-30 06:11:33 51°25.998 2°41.889 10 304 14.8 101870 48
2010-06-30 06:11:38 51°26.013 2°41.87 10.7 25 14.8 101870 48
2010-06-30 06:11:44 51°26.031 2°41.848 10.7 305 14.8 101870 48
2010-06-30 06:11:49 51°26.046 2°41.829 11.6 25 14.8 101870 49
2010-06-30 06:11:53 51°26.058 2°41.815 10.3 307 14.8 101870 49
2010-06-30 06:11:58 51°26.073 2°41.796 9.9 28 14.8 101870 49
2010-06-30 06:12:04 51°26.092 2°41.774 10 303 14.8 101870 49
2010-06-30 06:12:09 51°26.107 2°41.756 9.5 27 14.8 101870 49
2010-06-30 06:12:13 51°26.119 2°41.741 9 301 14.8 101870 49
2010-06-30 06:12:18 51°26.135 2°41.723 10.3 21 14.8 101870 48
2010-06-30 06:12:24 51°26.153 2°41.701 9.9 302 14.8 101870 48
2010-06-30 06:12:29 51°26.168 2°41.682 11.2 23 14.8 101880 48
2010-06-30 06:12:33 51°26.181 2°41.668 11.3 302 14.8 101880 48
2010-06-30 06:12:38 51°26.196 2°41.649 10.3 27 14.8 101880 48
2010-06-30 06:12:44 51°26.214 2°41.628 11.4 278 14.8 101880 48
2010-06-30 06:12:49 51°26.229 2°41.609 12 24 14.8 101880 49
2010-06-30 06:12:53 51°26.241 2°41.595 10.4 304 14.8 101880 49
2010-06-30 06:12:58 51°26.256 2°41.576 10.8 24 14.9 101880 49
2010-06-30 06:13:04 51°26.275 2°41.555 10.4 305 14.9 101880 49
2010-06-30 06:13:09 51°26.29 2°41.537 9.8 26 14.9 101880 48
2010-06-30 06:13:13 51°26.302 2°41.522 10 306 14.9 101880 48
2010-06-30 06:13:18 51°26.317 2°41.504 9.2 26 14.8 101870 49
2010-06-30 06:13:24 51°26.335 2°41.482 9.6 310 14.8 101870 49
2010-06-30 06:13:29 51°26.351 2°41.464 11.7 21 14.9 101880 48
2010-06-30 06:13:33 51°26.363 2°41.449 10.9 301 14.9 101880 48
2010-06-30 06:13:38 51°26.378 2°41.432 11 26 14.8 101870 47
2010-06-30 06:13:44 51°26.396 2°41.409 11.6 306 14.8 101870 47
2010-06-30 06:13:49 51°26.412 2°41.392 11 24 14.9 101870 49
2010-06-30 06:13:53 51°26.424 2°41.377 10.1 302 14.9 101870 49
2010-06-30 06:13:58 51°26.439 2°41.359 9.8 23 14.8 101870 48
2010-06-30 06:14:04 51°26.457 2°41.337 10.8 309 14.8 101870 48
2010-06-30 06:14:09 51°26.472 2°41.319 10.4 21 14.8 101880 49
2010-06-30 06:14:13 51°26.484 2°41.304 10 309 14.8 101880 49
2010-06-30 06:14:18 51°26.5 2°41.286 10.5 21 14.8 101870 49
2010-06-30 06:14:24 51°26.518 2°41.264 10.1 304 14.8 101870 49
2010-06-30 06:14:29 51°26.533 2°41.246 10.6 23 14.8 101870 49
2010-06-30 06:14:33 51°26.546 2°41.232 10.1 306 14.8 101870 49
2010-06-30 06:14:38 51°26.561 2°41.214 8.6 24 14.8 101870 48
2010-06-30 06:14:44 51°26.58 2°41.193 8.1 278 14.8 101870 48
2010-06-30 06:14:49 51°26.595 2°41.174 9.2 25 14.8 101870 49
2010-06-30 06:14:53 51°26.607 2°41.16 9.8 308 14.8 101870 49
2010-06-30 06:14:58 51°26.622 2°41.142 9.2 22 14.8 101880 49
2010-06-30 06:15:04 51°26.64 2°41.121 11.9 304 14.8 101880 49
2010-06-30 06:15:09 51°26.656 2°41.103 11.2 23 14.8 101880 49
2010-06-30 06:15:13 51°26.668 2°41.088 9.9 306 14.8 101880 49
2010-06-30 06:15:18 51°26.683 2°41.07 10.8 23 14.8 101880 50
2010-06-30 06:15:24 51°26.701 2°41.049 10 306 14.8 101880 50
2010-06-30 06:15:29 51°26.716 2°41.032 10.9 25 14.8 101880 49
2010-06-30 06:15:33 51°26.729 2°41.017 9.9 306 14.8 101880 49
2010-06-30 06:15:38 51°26.744 2°40.999 10.7 23 14.8 101870 48
2010-06-30 06:15:44 51°26.762 2°40.978 9.7 278 14.8 101870 48
2010-06-30 06:15:49 51°26.778 2°40.961 9.9 22 14.8 101870 49
2010-06-30 06:15:53 51°26.79 2°40.947 10.7 303 14.8 101870 49
2010-06-30 06:15:58 51°26.806 2°40.929 10.6 24 14.8 101870 50
2010-06-30 06:16:04 51°26.824 2°40.907 10.3 306 14.8 101870 50
2010-06-30 06:16:09 51°26.839 2°40.889 10.5 20 14.8 101870 50
2010-06-30 06:16:13 51°26.852 2°40.875 10.6 305 14.8 101870 50
2010-06-30 06:16:19 51°26.87 2°40.853 10.4 28 14.9 101880 47
2010-06-30 06:16:24 51°26.885 2°40.835 10.7 308 14.9 101880 47
2010-06-30 06:16:29 51°26.901 2°40.818 10.4 21 14.8 101870 49
2010-06-30 06:16:33 51°26.913 2°40.804 8.7 308 14.8 101870 49
2010-06-30 06:16:39 51°26.931 2°40.783 8 22 14.9 101870 48
2010-06-30 06:16:44 51°26.946 2°40.765 10.9 305 14.9 101870 48
2010-06-30 06:16:49 51°26.961 2°40.747 8.1 24 14.9 101880 48
2010-06-30 06:16:53 51°26.973 2°40.733 9.8 310 14.9 101880 48
2010-06-30 06:16:58 51°26.988 2°40.715 4.4 22 14.9 101870 50
2010-06-30 06:17:04 51°27.007 2°40.694 9.1 309 14.9 101870 50
2010-06-30 06:17:09 51°27.022 2°40.676 10.3 21 14.9 101890 50
2010-06-30 06:17:13 51°27.035 2°40.661 10.8 307 14.9 101890 50
2010-06-30 06:17:18 51°27.05 2°40.643 10.2 23 14.9 101870 49
2010-06-30 06:17:24 51°27.068 2°40.622 10.5 302 14.9 101870 49
2010-06-30 06:17:29 51°27.083 2°40.605 9.6 22 14.9 101860 48
2010-06-30 06:17:33 51°27.096 2°40.591 9.4 306 14.9 101860 48
2010-06-30 06:17:38 51°27.111 2°40.573 9.4 20 14.9 101870 50
2010-06-30 06:17:43 51°27.126 2°40.556 10.8 282 14.9 101870 50
2010-06-30 06:17:49 51°27.145 2°40.534 9.1 22 14.9 101870 49
2010-06-30 06:17:53 51°27.157 2°40.52 10.4 310 14.9 101870 49
2010-06-30 06:17:58 51°27.172 2°40.502 10.8 22 14.8 101860 50
2010-06-30 06:18:04 51°27.191 2°40.481 10.8 303 14.8 101860 50
2010-06-30 06:18:09 51°27.206 2°40.463 9.1 23 14.8 101870 50
2010-06-30 06:18:13 51°27.219 2°40.448 10.1 306 14.8 101870 50
2010-06-30 06:18:18 51°27.234 2°40.431 9.9 21 14.9 101870 48
2010-06-30 06:18:24 51°27.252 2°40.41 9.9 308 14.9 101870 48
2010-06-30 06:18:29 51°27.268 2°40.392 10.5 22 14.9 101860 48
2010-06-30 06:18:33 51°27.28 2°40.378 9.1 307 14.9 101860 48
2010-06-30 06:18:38 51°27.296 2°40.361 9.6 25 14.8 101870 49
2010-06-30 06:18:44 51°27.314 2°40.339 9.2 303 14.8 101870 49
2010-06-30 06:18:49 51°27.329 2°40.321 9.2 21 14.8 101870 49
2010-06-30 06:18:53 51°27.342 2°40.307 9.2 309 14.8 101870 49
2010-06-30 06:18:58 51°27.357 2°40.289 9.6 24 14.9 101880 48
2010-06-30 06:19:04 51°27.375 2°40.268 9.9 304 14.9 101880 48
2010-06-30 06:19:09 51°27.39 2°40.25 10.6 27 14.8 101870 50
2010-06-30 06:19:13 51°27.402 2°40.235 10.5 306 14.8 101870 50
2010-06-30 06:19:18 51°27.417 2°40.217 9.9 24 14.9 101870 50
2010-06-30 06:19:24 51°27.436 2°40.196 9.1 308 14.9 101870 50
2010-06-30 06:19:29 51°27.451 2°40.177 9.8 22 14.9 101870 49
2010-06-30 06:19:33 51°27.463 2°40.164 9.6 305 14.9 101870 49
2010-06-30 06:19:38 51°27.479 2°40.146 9.9 24 14.9 101870 49